CW5229 Weather Reports


time (UTC)temp
F
wind
direction
speed
knots
gust
knots
rain 1hr
in
rain 24hr
in
rain mn
in
humidity
%
barometer
mb
20260504044528 54 247 0.0 3.5 0.00 0.14 0.09 73 1005.1
20260504043030 54 191 0.0 3.5 0.00 0.14 0.09 72 1005.2
20260504041524 54 244 0.0 2.6 0.00 0.14 0.09 72 1005.4
20260504040023 54 255 0.0 2.6 0.00 0.14 0.09 72 1005.6
20260504034553 54 258 0.0 6.1 0.00 0.14 0.09 71 1005.7
20260504033101 55 230 0.0 2.6 0.00 0.14 0.09 71 1005.9
20260504031550 55 264 0.0 1.7 0.00 0.14 0.09 70 1006.0
20260504030100 55 229 0.0 1.7 0.00 0.14 0.09 70 1006.1
20260504024541 55 227 0.0 0.9 0.00 0.14 0.09 70 1006.1
20260504023041 55 242 0.0 1.7 0.00 0.14 0.09 70 1006.1
20260504021545 55 250 0.0 0.9 0.00 0.14 0.09 70 1005.9
20260504020040 55 253 0.0 0.9 0.00 0.14 0.09 69 1005.8
20260504014539 57 252 0.0 0.9 0.00 0.14 0.09 67 1005.5
20260504013041 59 243 0.0 2.6 0.00 0.14 0.09 61 1005.5
20260504011543 60 224 0.0 2.6 0.00 0.14 0.09 61 1005.5
20260504010052 60 238 0.0 2.6 0.00 0.14 0.09 61 1005.6
20260504004545 60 233 0.0 1.7 0.00 0.14 0.09 60 1005.5
20260504003042 62 254 0.0 6.1 0.00 0.14 0.09 57 1005.5
20260504001527 62 217 0.9 4.3 0.00 0.14 0.09 56 1005.5
20260504000012 63 231 0.9 7.8 0.00 0.14 0.09 54 1005.6
20260503234513 63 255 2.6 7.0 0.00 0.14 0.09 54 1005.4
20260503233006 64 175 1.7 7.0 0.00 0.14 0.09 54 1005.6
20260503231505 64 229 2.6 6.1 0.00 0.14 0.09 53 1005.8
20260503230004 65 122 1.7 7.8 0.00 0.14 0.09 52 1006.0
20260503224609 65 203 3.5 10.4 0.00 0.14 0.09 51 1006.1
20260503223112 64 158 1.7 7.8 0.00 0.14 0.09 51 1006.2
20260503221558 64 263 2.6 8.7 0.00 0.14 0.09 51 1006.5
20260503220057 64 176 2.6 13.0 0.00 0.14 0.09 51 1006.4
20260503214557 64 251 6.1 12.2 0.00 0.14 0.09 49 1006.6
20260503213051 63 253 4.3 9.6 0.00 0.14 0.09 50 1007.1
20260503211549 62 111 3.5 12.2 0.00 0.14 0.09 50 1007.4
20260503210047 63 162 3.5 12.2 0.00 0.14 0.09 48 1007.7
20260503204524 64 135 2.6 10.4 0.00 0.14 0.09 50 1007.8
20260503203014 64 203 5.2 13.0 0.00 0.14 0.09 47 1007.8
20260503201510 64 241 5.2 13.9 0.00 0.14 0.09 49 1007.9
20260503200007 63 148 4.3 11.3 0.00 0.14 0.09 51 1008.0
20260503194503 62 241 4.3 11.3 0.00 0.14 0.09 55 1008.5
20260503193108 60 141 1.7 5.2 0.00 0.14 0.09 66 1008.7
20260503191557 58 169 1.7 5.2 0.01 0.14 0.09 70 1009.0
20260503190048 55 152 0.0 4.3 0.03 0.14 0.09 78 1009.4
20260503184544 51 159 0.0 2.6 0.06 0.14 0.09 84 1009.8
20260503183042 49 210 0.0 3.5 0.07 0.14 0.09 84 1010.2
20260503181553 48 155 0.0 2.6 0.07 0.13 0.08 83 1010.8
20260503180041 49 208 0.0 1.7 0.05 0.10 0.05 82 1012.2
20260503174528 50 147 0.0 7.8 0.04 0.08 0.03 80 1012.4
20260503173026 49 113 0.9 2.6 0.05 0.07 0.02 83 1012.6
20260503171524 49 219 0.9 3.5 0.06 0.06 0.01 82 1012.9
20260503150133 55 255 1.7 8.7 0.00 0.00 0.00 59 1013.4
20260503081526 45 238 0.9 5.2 0.00 0.00 0.00 58 1014.6
20260503071550 43 252 0.0 0.9 0.00 0.00 0.00 62 1014.8
20260503054537 43 257 0.0 0.9 0.00 0.00 0.00 66 1015.6
20260503053059 43 207 0.0 1.7 0.00 0.00 0.00 66 1015.7